Tracking 35280 objects as of 7-Sep-2026
HD Live streaming from Space Station
objects crossing your sky now

THORAD AGENA D DEB


THORAD AGENA D DEB is no longer on orbit


NORAD ID: 17170
Int'l Code: 1970-025PC
Launch date: April 8, 1970
Source: United States (US)
Launch site: AIR FORCE WESTERN TEST RANGE (AFWTR)
Decay date: 1995-07-21

Note: This is SATELLITE DEBRIS
Your satellite tracking list
Your tracking list is empty




NASA's NSSDC Master Catalog

Two Line Element Set (TLE):
1 17170U 70025 PC 95202.05595159  .06185033 +12170-0 +84453-2 0  9990
2 17170 099.8055 230.9222 0016896 234.4771 127.3289 16.12246015505945
Source of the keplerian elements: AFSPC